Location: Peterborough
(44.3091°N, 78.3197°W)
Time: 00:10:35
(UTC-04:00)

Vanguard 1 Rocket - Pass Details

Date: 22 March 2023
Orbit: 655 x 4220 km, 34.3° (Epoch: 02 June)

Event Time Altitude Azimuth Distance (km) Brightness Sun altitude
Exits shadow 06:09:14 15° 253° (WSW) 3,227 9.5 -12.2°
Maximum altitude 06:13:43 22° 215° (SW) 2,249 9.0 -11.4°
Drops below altitude 10° 06:18:14 10° 165° (SSE) 2,532 9.7 -10.6°
Sets 06:20:49 0° 148° (SSE) 3,232 10.5 -10.1°
